Temp
4 4 4 4 3 3 3 4 4 5 5 4 5 5 4 4 5 4 5 5 7 7 7 7 8 9 9 10 11 13 15 17 17 18 18 15 18 15 16 18 16 16 15 15 15
3 4 4 4 3 3 3 4 5 5 5 5 4 4 4 4 4 4 5 6 6 6 7 7 9 9 10 11 12 14 15 17 19 19 17 14 16 14 17 18 17 16 15 15 15
3 3 3 3 3 3 4 4 4 4 4 4 4 4 4 3 4 6 5 5 5 6 6 8 8 8 10 12 12 14 15 18 18 18 15 15 15 13 17 17 15 15 15 15 15
3 3 3 3 3 3 4 3 4 4 4 4 4 4 4 4 6 4 5 6 5 6 6 6 8 9 11 12 12 14 15 16 15 15 15 16 14 15 15 15 14 13 14 14 14
4 3 2 2 3 3 3 4 3 4 4 4 4 4 4 4 5 5 5 5 6 5 6 6 8 10 12 13 12 13 15 15 15 13 14 13 14 15 15 14 13 14 14 14 14
3 3 2 2 2 3 3 3 3 4 4 4 4 4 3 6 5 4 5 5 5 5 5 6 7 10 12 12 13 13 13 14 13 12 12 14 14 14 14 13 15 15 15 14 13
3 3 2 2 2 3 3 3 3 3 4 4 4 4 4 5 4 4 4 4 4 4 5 5 7 9 11 13 12 13 12 13 13 12 14 12 14 14 16 14 15 16 16 15 14
2 2 2 2 2 2 3 3 3 4 3 3 4 4 5 4 4 4 4 4 4 4 5 5 6 8 11 11 12 13 14 11 14 12 11 13 14 17 16 15 16 16 16 15 15
2 2 2 2 2 2 3 3 3 3 3 4 4 4 5 4 4 4 4 4 4 4 5 5 5 7 9 12 12 12 14 14 13 13 11 13 14 17 15 15 16 16 16 15 15
2 2 2 2 2 2 3 3 3 3 3 3 4 4 4 4 4 4 3 4 4 4 5 5 5 8 11 12 12 12 14 13 13 12 12 13 15 14 12 13 16 17 16 15 16
2 2 1 2 2 2 3 3 2 2 2 4 3 3 3 4 4 4 3 4 4 4 5 5 5 8 11 13 14 13 12 12 13 11 13 13 13 14 14 14 16 16 16 16 15
2 2 2 2 2 2 3 3 3 3 4 3 3 3 3 3 4 3 3 4 4 4 5 6 6 8 11 12 13 13 13 13 13 13 13 14 13 15 15 14 14 15 17 16 15
2 2 3 2 3 3 3 3 3 3 5 3 3 3 3 3 4 3 3 3 3 5 4 6 6 8 10 11 12 13 13 13 14 13 13 13 13 14 15 13 14 14 15 16 16
2 4 4 3 3 3 3 3 3 3 5 4 4 3 3 3 4 2 2 3 3 5 6 7 6 7 10 11 13 11 13 14 13 13 13 14 15 15 15 14 14 15 15 15 15
5 4 5 3 3 2 2 3 3 3 7 3 4 3 3 4 4 3 3 4 4 5 7 7 6 6 9 11 13 13 12 13 13 14 13 13 13 16 14 14 15 15 15 15 16
5 5 5 3 3 2 3 3 3 4 6 4 4 5 5 5 5 4 5 3 5 7 6 7 6 6 11 10 11 11 12 12 12 12 12 14 13 16 15 15 16 16 15 14 14
5 5 4 3 3 3 3 3 5 7 5 4 4 5 5 5 6 5 5 6 7 6 6 6 6 7 8 10 11 12 13 10 10 10 12 12 12 15 16 15 15 16 15 15 15
4 4 3 3 3 3 3 4 7 6 5 6 4 4 5 5 5 5 6 6 7 6 7 7 7 6 9 10 10 12 13 12 11 11 13 10 12 15 15 13 12 12 13 14 15
4 4 3 4 3 3 3 6 6 5 6 6 4 5 5 5 6 7 7 7 7 6 8 8 7 7 8 9 10 10 11 10 10 8 12 13 13 15 15 15 14 13 12 12 12
4 4 3 3 3 3 4 5 4 4 6 7 7 7 8 7 7 6 8 8 6 6 7 8 7 7 8 8 9 11 11 10 9 10 11 12 13 16 16 15 15 14 13 12 11
3 4 3 3 2 2 5 5 5 5 5 6 7 7 7 7 8 8 9 7 7 6 7 9 10 7 9 9 11 10 11 10 11 11 12 13 14 16 15 14 13 13 11 10 10
4 5 3 3 3 2 6 6 6 7 5 7 7 9 9 8 9 9 9 8 6 8 8 9 10 8 7 9 9 10 11 12 11 10 9 11 14 14 14 13 11 13 10 9 8
4 2 2 2 5 6 6 7 7 7 7 7 8 9 9 9 9 8 9 7 7 9 9 9 9 8 7 9 8 9 10 10 10 8 9 12 14 12 12 12 12 12 11 10 9
4 4 2 2 2 6 7 7 7 6 7 7 8 8 9 9 8 8 8 8 7 8 8 9 9 10 10 10 10 8 9 9 9 8 11 11 13 13 13 13 13 13 12 11 9
4 3 2 4 5 5 5 6 7 7 7 7 8 8 9 9 9 8 8 8 8 8 8 10 8 7 8 8 7 8 9 9 7 9 10 12 13 13 14 15 14 12 11 11 10
3 3 2 2 2 5 5 6 6 6 6 8 8 7 8 9 9 9 9 9 10 8 9 8 7 7 7 8 7 7 9 9 10 10 10 11 11 13 13 12 11 12 11 10 10
4 3 4 0 3 6 5 5 5 5 6 6 6 8 8 7 6 6 7 7 9 10 9 9 8 7 9 7 8 8 10 10 10 10 10 10 11 13 12 11 11 11 11 11 11
Height
1527 1526 1524 1521 1517 1514 1511 1507 1504 1502 1500 1499 1499 1500 1500 1501 1500 1500 1501 1502 1503 1505 1506 1508 1510 1512 1514 1517 1517 1517 1515 1514 1516 1520 1524 1530 1530 1532 1532 1532 1532 1533 1533 1533 1535
1525 1523 1521 1519 1516 1512 1509 1505 1502 1500 1499 1497 1497 1498 1499 1500 1499 1499 1499 1498 1499 1502 1504 1504 1507 1511 1515 1513 1514 1514 1512 1508 1510 1516 1525 1529 1531 1533 1533 1532 1533 1533 1532 1531 1534
1525 1521 1519 1517 1514 1510 1507 1505 1501 1499 1498 1497 1497 1497 1498 1498 1500 1496 1494 1495 1497 1498 1499 1501 1506 1511 1510 1510 1510 1511 1505 1509 1513 1517 1525 1526 1532 1533 1532 1533 1536 1535 1533 1532 1535
1522 1520 1516 1514 1513 1509 1506 1505 1502 1499 1497 1497 1497 1497 1497 1497 1496 1494 1493 1491 1493 1496 1499 1501 1503 1507 1506 1505 1508 1509 1509 1511 1518 1521 1524 1526 1531 1533 1534 1535 1535 1535 1533 1533 1535
1521 1517 1514 1512 1510 1508 1505 1503 1501 1499 1498 1498 1497 1496 1497 1498 1496 1493 1491 1489 1491 1495 1498 1499 1500 1502 1502 1503 1507 1507 1509 1515 1517 1521 1523 1526 1527 1532 1534 1535 1534 1536 1534 1534 1535
1519 1515 1512 1510 1507 1506 1504 1502 1500 1500 1500 1499 1498 1497 1497 1497 1494 1492 1492 1490 1491 1494 1496 1497 1497 1501 1502 1501 1503 1507 1510 1513 1519 1521 1523 1526 1527 1531 1533 1533 1535 1535 1536 1535 1536
1517 1514 1510 1506 1505 1504 1502 1502 1500 1500 1500 1500 1499 1498 1497 1498 1495 1493 1492 1492 1491 1490 1495 1495 1495 1500 1498 1498 1503 1506 1512 1515 1518 1523 1524 1527 1529 1527 1530 1533 1533 1534 1535 1536 1535
1515 1512 1508 1504 1503 1501 1500 1500 1500 1500 1499 1499 1499 1499 1498 1496 1495 1494 1494 1493 1493 1493 1494 1495 1495 1498 1497 1501 1506 1506 1507 1519 1516 1522 1526 1527 1522 1519 1527 1531 1531 1533 1534 1534 1535
1513 1509 1506 1502 1499 1498 1498 1498 1498 1498 1499 1499 1499 1498 1498 1497 1496 1494 1495 1494 1494 1494 1495 1495 1494 1497 1499 1497 1503 1504 1500 1504 1514 1519 1525 1525 1520 1518 1524 1527 1528 1530 1532 1533 1533
1509 1506 1503 1499 1496 1497 1497 1496 1496 1498 1498 1498 1498 1500 1499 1498 1496 1494 1495 1494 1495 1495 1497 1497 1498 1495 1494 1492 1493 1498 1498 1506 1511 1519 1521 1522 1519 1524 1525 1525 1523 1525 1528 1530 1531
1505 1502 1499 1495 1494 1494 1495 1496 1500 1500 1499 1498 1497 1496 1497 1496 1495 1494 1496 1495 1495 1495 1496 1499 1498 1491 1488 1490 1488 1495 1505 1512 1511 1518 1518 1519 1520 1519 1518 1521 1520 1521 1524 1527 1529
1502 1499 1495 1492 1493 1492 1493 1493 1494 1497 1499 1497 1497 1496 1496 1495 1496 1495 1496 1496 1494 1495 1497 1498 1498 1498 1494 1495 1496 1498 1503 1506 1512 1514 1516 1515 1514 1512 1514 1516 1517 1519 1518 1523 1526
1498 1495 1492 1491 1490 1491 1492 1492 1493 1494 1497 1497 1496 1497 1496 1497 1496 1495 1496 1498 1496 1494 1497 1497 1498 1500 1497 1499 1497 1498 1500 1504 1505 1511 1515 1515 1513 1508 1509 1514 1514 1514 1517 1518 1520
1494 1492 1490 1489 1492 1492 1492 1491 1491 1492 1493 1498 1497 1497 1497 1496 1496 1494 1496 1497 1496 1497 1496 1497 1501 1501 1498 1497 1495 1504 1501 1503 1507 1508 1512 1510 1501 1497 1502 1507 1507 1505 1507 1509 1514
1491 1489 1488 1487 1490 1492 1492 1490 1491 1493 1477 1500 1498 1497 1496 1497 1497 1494 1494 1496 1495 1495 1495 1496 1500 1505 1500 1497 1497 1499 1505 1506 1507 1506 1509 1512 1514 1489 1499 1498 1499 1501 1503 1507 1508
1489 1486 1487 1488 1490 1492 1491 1491 1493 1494 1488 1497 1498 1497 1496 1496 1496 1495 1495 1497 1495 1494 1497 1498 1501 1506 1497 1501 1502 1503 1505 1511 1513 1514 1515 1503 1509 1491 1493 1494 1492 1493 1497 1501 1504
1487 1487 1488 1489 1491 1491 1491 1492 1490 1480 1496 1498 1498 1497 1497 1496 1496 1498 1494 1493 1491 1494 1496 1498 1504 1504 1503 1502 1505 1500 1499 1516 1523 1521 1508 1509 1510 1492 1487 1491 1491 1491 1494 1495 1498
1487 1488 1489 1489 1490 1491 1492 1493 1477 1487 1490 1491 1496 1498 1496 1498 1500 1500 1497 1495 1493 1492 1496 1494 1505 1507 1502 1502 1501 1497 1494 1498 1507 1507 1499 1514 1503 1487 1486 1490 1489 1492 1493 1493 1495
1488 1489 1490 1490 1491 1491 1493 1484 1483 1488 1489 1489 1495 1495 1497 1498 1497 1495 1495 1494 1494 1495 1493 1495 1501 1505 1504 1504 1503 1505 1504 1509 1510 1520 1505 1496 1495 1486 1483 1483 1487 1489 1491 1492 1492
1487 1489 1490 1490 1490 1491 1492 1485 1489 1491 1491 1489 1484 1487 1485 1491 1492 1497 1489 1492 1495 1497 1498 1494 1499 1505 1507 1508 1505 1500 1505 1508 1511 1511 1504 1502 1495 1480 1482 1483 1486 1486 1489 1488 1488
1487 1488 1490 1490 1490 1490 1486 1486 1488 1490 1491 1490 1486 1487 1489 1491 1490 1491 1490 1495 1495 1496 1497 1493 1490 1507 1504 1504 1497 1503 1502 1505 1503 1506 1496 1495 1485 1481 1485 1487 1486 1485 1487 1487 1485
1485 1487 1489 1490 1492 1490 1483 1485 1487 1487 1490 1489 1488 1486 1485 1487 1485 1486 1486 1491 1496 1495 1493 1492 1491 1500 1506 1505 1505 1503 1500 1496 1500 1507 1511 1504 1488 1484 1486 1488 1489 1486 1486 1485 1483
1484 1486 1489 1490 1486 1482 1484 1484 1486 1486 1486 1488 1487 1487 1485 1485 1487 1487 1487 1491 1494 1494 1491 1491 1493 1501 1509 1507 1506 1502 1500 1501 1503 1507 1507 1497 1481 1485 1486 1487 1487 1486 1485 1484 1483
1482 1484 1489 1489 1488 1485 1482 1484 1484 1486 1486 1486 1485 1483 1482 1483 1486 1487 1488 1491 1492 1493 1493 1494 1491 1487 1484 1487 1490 1500 1497 1498 1502 1504 1493 1487 1482 1481 1483 1483 1483 1484 1483 1482 1482
1478 1481 1481 1484 1485 1485 1486 1485 1483 1485 1486 1485 1482 1482 1481 1480 1482 1485 1488 1491 1492 1492 1491 1490 1493 1495 1491 1493 1497 1496 1494 1494 1500 1494 1489 1481 1476 1479 1478 1476 1478 1481 1481 1482 1483
1475 1477 1481 1484 1485 1485 1486 1485 1485 1487 1487 1483 1483 1484 1482 1481 1484 1483 1483 1485 1484 1491 1491 1493 1495 1499 1497 1496 1497 1496 1491 1489 1488 1487 1481 1481 1472 1477 1477 1479 1479 1478 1479 1479 1481
1472 1473 1476 1485 1484 1482 1484 1486 1488 1488 1488 1488 1488 1487 1487 1489 1489 1489 1488 1487 1487 1486 1489 1491 1493 1497 1492 1499 1497 1492 1478 1480 1478 1476 1476 1476 1469 1471 1474 1475 1475 1474 1474 1473 1475
Wind_Speed
13 14 13 17 17 18 18 15 13 11 10 11 10 9 11 9 12 12 13 16 15 9 12 16 13 13 12 14 12 13 10 16 23 16 10 3 6 1 1 0 4 6 2 3 9
16 13 14 15 18 17 14 15 11 11 9 6 4 4 7 6 10 13 12 11 21 14 10 11 17 16 13 15 13 13 15 25 22 17 8 7 3 1 3 6 4 4 7 5 16
15 17 14 12 17 16 11 12 11 9 7 4 3 3 3 1 8 5 7 8 17 20 11 9 17 16 11 15 15 17 19 17 15 21 16 10 5 1 6 6 7 9 9 10 18
20 19 15 13 13 16 13 9 8 7 6 5 4 2 2 5 2 2 8 13 17 24 15 11 17 16 13 13 21 14 18 15 12 13 11 14 9 2 2 6 5 9 8 12 18
17 19 17 13 10 13 11 9 7 6 5 4 3 1 1 3 4 5 7 9 15 21 21 15 20 22 16 18 17 15 18 16 11 8 9 12 10 2 3 4 3 8 12 9 16
16 19 19 14 10 8 7 9 7 4 4 4 4 3 1 1 3 4 3 6 12 19 22 14 17 17 18 15 17 17 6 23 13 7 4 6 8 2 3 5 1 7 10 5 5
18 18 18 16 9 9 5 5 7 3 2 2 4 3 1 1 5 5 2 1 3 14 11 8 12 11 14 11 10 15 7 8 14 12 6 2 9 13 10 8 12 9 7 7 4
18 18 17 19 9 10 5 6 7 4 2 2 3 3 1 1 5 5 3 2 7 5 20 1 9 5 10 7 13 10 16 9 13 12 3 9 21 26 19 11 15 11 8 5 6
17 18 17 18 11 8 5 7 5 3 3 2 3 1 1 1 4 6 2 2 6 5 21 8 6 6 8 13 11 13 12 21 10 16 7 13 12 15 15 18 18 15 10 8 8
18 18 16 16 12 7 5 4 1 2 2 2 1 2 1 3 8 6 1 1 5 5 9 10 5 4 10 13 14 14 11 13 13 11 10 13 18 3 2 9 24 19 14 12 11
18 17 16 15 9 6 4 1 2 1 2 0 1 1 1 6 5 4 2 1 5 5 5 8 1 8 16 15 5 14 10 11 9 8 12 12 13 13 9 11 20 25 21 19 13
17 17 15 14 6 2 3 3 3 3 2 1 2 4 4 2 2 1 4 0 4 7 9 3 2 9 10 10 11 14 13 13 8 12 12 10 14 13 15 17 17 20 27 24 18
16 16 14 8 2 3 3 4 3 3 1 1 0 1 2 1 1 4 2 4 1 8 7 7 3 13 13 13 13 14 16 12 10 10 11 5 12 16 17 20 18 19 26 27 27
16 15 10 1 2 3 1 4 5 4 2 3 1 1 2 1 2 4 6 2 1 7 9 5 8 12 11 15 14 13 10 13 11 12 5 11 4 10 18 17 21 26 25 32 26
16 12 2 4 6 4 1 4 3 3 1 1 1 1 1 3 1 3 2 3 3 4 4 3 10 12 16 15 10 5 12 10 9 10 4 7 5 3 6 20 20 22 26 26 28
13 4 5 7 6 5 5 3 3 2 4 1 0 2 0 4 3 2 2 3 2 6 6 5 14 4 9 5 3 13 13 9 5 3 6 11 11 4 5 11 12 21 26 22 22
5 5 8 8 5 5 5 1 1 3 1 2 2 1 3 1 3 4 1 2 2 5 3 5 6 1 4 10 10 9 17 5 4 5 5 1 9 11 10 9 7 11 23 26 24
5 7 9 9 8 5 2 1 3 1 2 5 3 5 2 3 1 1 4 1 1 3 3 3 4 5 3 5 7 15 10 3 6 5 5 3 6 2 2 2 2 8 9 14 24
8 9 7 6 6 2 1 0 2 3 2 4 8 4 3 3 3 3 2 4 1 1 2 3 3 2 6 2 2 4 6 2 4 1 2 3 4 9 5 3 4 6 7 13 14
10 8 5 5 5 2 1 1 1 2 1 2 1 1 4 6 5 3 4 4 4 2 1 2 5 1 4 1 4 2 9 3 0 5 4 3 4 3 5 7 6 3 7 9 11
11 5 5 5 5 1 1 1 1 4 4 2 1 4 2 2 3 4 3 1 3 3 6 2 2 4 8 3 8 4 4 1 1 2 2 2 3 5 4 4 7 7 5 5 8
8 2 7 7 3 1 1 1 1 3 3 2 1 2 4 3 1 1 2 1 14 7 6 3 4 4 2 1 1 1 3 11 6 5 0 3 4 6 3 2 4 7 5 2 3
7 4 7 7 2 2 1 1 1 2 2 2 1 1 1 4 2 2 3 2 10 7 5 5 3 6 4 3 2 5 8 4 3 2 7 6 3 2 2 3 1 5 4 3 5
6 3 3 4 3 2 2 1 2 1 1 1 1 3 5 4 1 4 3 2 6 2 3 3 3 3 6 2 4 7 14 14 10 5 11 15 13 7 9 10 7 14 7 5 10
4 2 4 3 3 2 1 1 2 2 2 2 1 3 1 3 4 5 2 4 3 4 1 3 1 1 1 2 2 3 9 16 14 18 15 12 19 18 18 18 18 9 8 9 13
5 5 4 3 2 3 1 2 2 1 2 1 3 3 1 2 2 4 6 4 2 4 3 1 2 1 2 2 4 7 11 13 18 20 21 24 27 19 21 16 16 20 14 9 16
6 10 7 1 3 3 2 2 3 1 1 5 2 1 5 4 5 4 1 2 2 4 4 2 4 3 1 1 3 9 18 17 11 12 14 18 20 14 13 16 16 19 19 20 21
Wind_Direction
340 338 335 337 340 344 353 345 339 326 305 291 286 267 247 256 261 266 246 234 215 191 204 216 204 205 204 204 197 193 208 214 204 203 191 137 176 84 92 146 77 49 8 233 187
341 337 336 336 331 341 3 354 343 341 332 319 315 246 256 259 264 256 256 243 214 214 210 201 193 194 199 203 192 196 213 217 216 210 159 132 152 18 186 144 77 66 10 119 173
344 340 334 330 331 342 356 356 355 353 354 355 342 287 275 271 271 236 202 264 220 218 196 205 188 192 206 195 192 207 210 207 203 208 163 134 112 359 157 94 54 4 351 150 171
333 338 332 326 333 340 357 357 349 354 4 354 359 12 215 201 261 208 277 263 217 202 195 215 184 181 200 195 194 205 212 194 162 162 168 143 133 133 19 112 88 24 1 177 182
329 331 333 336 325 334 352 358 356 359 13 31 43 51 177 223 258 290 309 289 203 192 186 211 182 183 195 196 188 219 189 198 158 147 120 150 122 126 223 164 98 33 33 188 189
328 326 329 332 323 318 329 340 335 360 17 31 50 74 72 250 303 314 319 317 172 192 193 200 183 184 195 194 192 187 163 197 165 146 126 211 165 140 173 163 245 354 24 46 215
332 329 325 325 327 309 308 307 324 328 349 45 50 41 54 345 347 323 327 240 183 185 177 201 183 190 167 167 183 179 123 196 185 178 182 162 230 233 233 262 282 302 338 17 26
330 328 327 324 334 313 267 304 289 286 246 275 357 24 276 351 15 25 22 270 199 156 215 274 216 169 180 142 168 162 194 189 185 180 150 178 227 224 224 262 272 280 287 314 351
327 325 324 320 323 307 256 304 284 264 230 241 325 14 227 279 355 346 124 140 267 244 220 261 169 209 160 165 161 185 185 207 172 202 159 183 230 239 248 255 259 264 269 281 314
324 321 321 317 318 309 255 317 286 242 229 256 276 182 139 319 319 319 21 25 196 217 196 208 182 187 180 177 181 175 199 181 192 189 192 211 238 157 173 259 243 252 259 261 278
322 324 316 319 331 299 233 148 121 183 198 195 133 36 355 311 312 305 60 95 156 242 173 174 160 182 177 189 191 146 158 175 160 170 198 220 227 233 231 244 244 251 255 249 256
324 323 323 325 324 239 191 192 195 168 140 173 289 279 289 302 299 245 356 194 177 196 163 152 161 204 156 160 164 175 175 178 159 177 207 205 231 235 231 231 229 244 249 242 245
326 328 328 332 301 152 183 203 200 145 198 100 311 300 266 61 310 292 309 119 177 167 239 135 146 172 173 179 167 173 186 171 161 153 200 214 246 238 237 235 231 239 241 235 236
328 332 325 20 114 131 195 166 162 160 193 46 86 46 324 293 177 254 190 232 84 156 202 160 153 169 177 174 168 170 195 170 151 169 211 202 268 221 220 222 228 230 237 231 221
332 328 316 148 123 95 140 168 165 166 53 23 9 331 1 318 337 208 184 88 153 146 181 118 151 176 196 172 189 130 166 190 189 203 216 194 247 243 235 227 231 236 238 241 214
336 339 133 128 115 116 117 134 114 226 55 142 21 119 68 357 15 336 71 91 128 84 64 98 119 183 183 132 186 143 136 106 113 199 238 224 220 251 226 240 247 230 243 239 216
6 102 116 112 131 129 143 148 213 26 138 133 123 175 125 36 73 344 29 97 131 154 102 110 120 342 234 133 145 184 152 126 181 208 232 46 218 254 282 243 258 245 234 233 222
109 113 117 93 119 133 168 238 80 327 196 127 135 130 121 151 78 229 142 72 23 55 113 136 155 151 200 162 183 185 177 196 194 197 190 175 220 247 307 320 323 251 247 238 231
137 118 106 113 132 169 240 33 105 208 161 142 150 182 175 224 205 196 205 135 298 34 127 152 85 168 231 53 213 186 204 23 94 48 221 154 241 268 318 252 251 260 239 242 231
155 129 126 150 156 173 256 71 125 212 192 231 122 14 125 136 164 232 201 144 129 202 274 133 112 252 134 212 66 224 145 171 303 171 216 155 253 176 32 11 356 315 278 246 231
167 137 138 152 173 177 7 221 189 200 213 212 149 120 112 137 165 179 150 164 131 225 229 195 102 141 149 233 201 156 189 126 140 330 265 177 168 151 98 350 336 354 332 266 223
176 141 158 159 221 250 210 181 159 152 183 232 299 66 141 194 232 188 144 82 176 204 170 184 124 123 103 86 359 199 224 222 233 192 196 322 237 172 209 309 309 1 12 11 182
161 118 166 175 249 188 168 179 241 161 183 174 160 291 138 153 160 286 114 120 183 202 175 190 133 132 135 193 212 228 209 215 232 22 204 235 186 137 196 207 152 33 16 104 160
166 133 144 187 266 285 146 103 131 100 93 284 13 191 167 134 73 151 141 120 174 261 188 186 169 225 198 110 139 200 213 210 200 215 241 230 255 213 220 220 265 313 294 226 187
165 130 156 168 196 185 194 92 126 97 5 30 113 39 259 137 137 134 140 138 131 145 75 334 46 79 7 90 166 244 224 212 212 227 237 257 244 246 260 276 297 312 293 241 213
163 151 131 103 127 175 340 104 102 63 323 51 97 29 252 73 26 157 155 186 173 148 149 96 118 100 288 220 245 262 243 230 231 239 252 254 263 264 254 261 265 273 279 249 229
173 147 134 139 156 189 143 136 118 309 106 45 338 113 78 37 348 323 307 102 136 185 157 172 152 166 229 262 257 266 243 225 225 231 238 247 254 275 259 259 262 273 266 251 246